Weather History for K12N - January, 2013

Change the Weather History Date:

Thursday, January 3, 2013

  Actual Average (KMMU) Record (KMMU)
Temperature  
Mean Temperature 23 °F -  
Max Temperature 30 °F 39 °F - (-1)
Min Temperature 16 °F 19 °F - (-1)
Degree Days  
Heating Degree Days 42    
Moisture  
Dew Point 14 °F    
Average Humidity 65    
Maximum Humidity 88    
Minimum Humidity 49    
Precipitation  
Precipitation 0.02 in - - ()
Sea Level Pressure  
Sea Level Pressure 30.15 in    
Wind  
Wind Speed 2 mph (SW)    
Max Wind Speed 9 mph    
Max Gust Speed -    
Averages and records for this station are not official NWS values.
T = Trace of Precipitation, MM = Missing Value Source: NWS Daily Summary

Daily Weather History Graph

Daily Weather History Graph

Search for Another Location

Airport or City:

Trip Planner

Search our weather history database for the weather conditions in past years. The results will help you decide how hot, cold, wet, or windy it might be!

Date:

Astronomy

Jan. 03, 2013 Rise Set
Actual Time 7:24 AM EST 4:43 PM EST
Civil Twilight 6:53 AM EST 5:14 PM EST
Nautical Twilight 6:18 AM EST 5:48 PM EST
Astronomical Twilight 5:45 AM EST 6:22 PM EST
Moon 11:19 PM EST (1/3) 10:31 AM EST (1/3)
Length of Visible Light 10h 21m
Length of Day
9h 19m
Waning Gibbous, 65% of the Moon is Illuminated
Jan 3
Waning Gibbous
Jan 4
Last Quarter
Jan 11
New
Jan 18
First Quarter
Jan 26
Full

Hourly Weather History & Observations

Time (EST) Temp. Windchill Dew Point Humidity Pressure Visibility Wind Dir Wind Speed Gust Speed Precip Events Conditions
12:54 AM 24.1 °F - 17.1 °F 75% 30.20 in - Calm Calm - N/A   Unknown
1:54 AM 23.0 °F - 15.1 °F 72% 30.20 in - Calm Calm - N/A   Unknown
2:54 AM 21.9 °F - 15.1 °F 75% 30.21 in - Calm Calm - N/A   Unknown
3:54 AM 19.9 °F - 14.0 °F 78% 30.20 in - Calm Calm - N/A   Unknown
4:54 AM 19.0 °F - 15.1 °F 85% 30.20 in - Calm Calm - N/A   Unknown
5:54 AM 17.1 °F - 12.9 °F 84% 30.20 in - Calm Calm - N/A   Unknown
6:54 AM 16.0 °F - 10.9 °F 81% 30.21 in - Calm Calm - N/A   Unknown
7:54 AM 16.0 °F - 10.9 °F 81% 30.21 in - Calm Calm - N/A   Unknown
8:54 AM 16.0 °F - 12.9 °F 88% 30.22 in - Calm Calm - N/A   Unknown
9:54 AM 19.9 °F - 12.0 °F 71% 30.22 in - Calm Calm - N/A   Unknown
10:54 AM 25.0 °F - 14.0 °F 63% 30.20 in - Calm Calm - N/A   Unknown
11:54 AM 28.9 °F 23.9 °F 12.0 °F 49% 30.15 in - Variable 4.6 mph - 0.02 in   Unknown
12:54 PM 28.9 °F 21.9 °F 12.0 °F 49% 30.12 in - NW 6.9 mph - N/A   Unknown
1:54 PM 30.0 °F 26.5 °F 12.9 °F 49% 30.10 in - Variable 3.5 mph - N/A   Unknown
2:54 PM 30.0 °F 21.7 °F 12.9 °F 49% 30.09 in - SSW 9.2 mph - N/A   Unknown
3:54 PM 30.0 °F 24.1 °F 14.0 °F 51% 30.10 in - SW 5.8 mph - N/A   Unknown
4:54 PM 28.9 °F 25.2 °F 14.0 °F 54% 30.10 in - Variable 3.5 mph - N/A   Unknown
5:54 PM 27.0 °F 23.0 °F 14.0 °F 58% 30.11 in - South 3.5 mph - N/A   Unknown
6:54 PM 28.0 °F 24.2 °F 14.0 °F 56% 30.11 in - SSW 3.5 mph - N/A   Unknown
7:54 PM 28.9 °F 21.9 °F 14.0 °F 54% 30.12 in - SW 6.9 mph - N/A   Unknown
8:54 PM 28.0 °F 21.7 °F 14.0 °F 56% 30.11 in - SW 5.8 mph - N/A   Unknown
9:54 PM 28.9 °F 25.2 °F 16.0 °F 58% 30.11 in - SSW 3.5 mph - N/A   Unknown
10:54 PM 30.0 °F - 17.1 °F 59% 30.10 in - Calm Calm - N/A   Unknown
11:54 PM 30.0 °F 26.5 °F 18.0 °F 61% 30.08 in - Variable 3.5 mph - N/A   Unknown